Content
SEND FEEDBACK

Daily
Averages
Monthly
Summary
United States of America

CALHOUN, GEORGIA


Home > North America > United States > Georgia
Elevation: 655 feet     Latitude: 34 29N     Longitude: 084 58W

WEATHER
 
SELECT A DAY
Number of Records: 210,742;   Date Range: 1/1/95 - 8/12/14
 
SHARE

PRINT THIS DATA

[ ← Previous Day ]
WEATHER ALMANAC - JANUARY 17, 2014
[ Next Day → ]
[ °C ]   °F
Weather ElementAverageHighLow
Temperature34.6 °F48 °F (12:53 pm)23 °F (6:53 am)
Dewpoint20.9 °F30.9 °F (10:53 am)14 °F (10:53 pm)
Humidity60.7 %88 % (4:53 am)34 % (2:53 pm)
Barometer30.00 in30.13 in (10:53 pm)29.93 in (1:53 pm)
Wind Speed6.2 mph16.1 mph (2:53 pm)
Wind Gust27.6 mph (3:53 pm)
Weather ElementAverage
Visibility10 mi
Wind DirectionS (180 °)

Weather ElementTotal
Precipitation---
Heating Degree Days29.5 (Base 65)
Averaged from 23 records on January 17, 2014
WEATHER CONDITIONS BREAKOUT
WIND DIRECTION BREAKOUT
WEATHER BY HOUR - JANUARY 17, 2014
[ °C ]   °F
Local TimeTemperatureDewpointHumidityBarometerVisibilityWind DirectionWind SpeedGust SpeedPrecipitationEventsConditions
1:53 AM26.1 °F21.0 °F81 %29.95 in10.0 miCalmClear
2:53 AM26.1 °F21.0 °F81 %29.95 in10.0 miCalmClear
3:53 AM26.1 °F21.0 °F81 %29.95 in10.0 miCalmClear
4:53 AM24.1 °F21.0 °F88 %29.96 in10.0 miCalmPartly Cloudy
5:53 AM25.0 °F21.9 °F88 %29.96 in10.0 miCalmClear
6:53 AM23.0 °F19.9 °F88 %29.98 in10.0 miCalmClear
7:53 AM23.0 °F19.9 °F88 %29.97 in10.0 miCalmClear
8:53 AM28.0 °F25.0 °F88 %29.99 in10.0 miCalmClear
9:53 AM37.0 °F30.0 °F76 %30.00 in10.0 miSouth (180°)5.8 mphClear
10:53 AM43.0 °F30.9 °F62 %30.01 in10.0 miSW (230°)9.2 mphClear
11:53 AM46.0 °F26.1 °F46 %29.98 in10.0 miWest (270°)10.4 mphClear
12:53 PM48.0 °F24.1 °F39 %29.94 in10.0 miSW (230°)11.5 mph20.7 mphPartly Cloudy
1:53 PM45.0 °F23.0 °F42 %29.93 in10.0 miWSW (250°)8.1 mph17.3 mphScattered Clouds
2:53 PM46.9 °F19.9 °F34 %29.93 in10.0 miWest (260°)16.1 mph23.0 mphPartly Cloudy
3:53 PM44.1 °F18.0 °F35 %29.96 in10.0 miWest (270°)15.0 mph27.6 mphScattered Clouds
4:53 PM43.0 °F19.9 °F40 %29.99 in10.0 miNW (320°)9.2 mphPartly Cloudy
5:53 PM39.0 °F19.9 °F46 %30.02 in10.0 miWNW (300°)9.2 mphPartly Cloudy
6:53 PM37.0 °F19.0 °F48 %30.05 in10.0 miWNW (300°)9.2 mph18.4 mphClear
7:53 PM35.1 °F18.0 °F50 %30.08 in10.0 miNW (310°)10.4 mph19.6 mphClear
8:53 PM34.0 °F17.1 °F50 %30.11 in10.0 miNW (320°)9.2 mphOvercast
9:53 PM33.1 °F15.1 °F48 %30.12 in10.0 miNW (310°)8.1 mphOvercast
10:53 PM32.0 °F14.0 °F48 %30.13 in10.0 miWNW (290°)4.6 mphOvercast
11:53 PM30.9 °F14.0 °F50 %30.11 in10.0 miWNW (300°)5.8 mphOvercast
Hourly data recorded from KRMG, located miles away from Calhoun, Georgia







STORIES FROM OUR PARTNERS